NOAA 16 DEB

Satellite information

Favourite Embed

Satellite Type and Status

DEBRISIN ORBIT

Key statistics

Satellite NOAA 16 DEB at a glance.

Uptime

9000

Days in orbit

Revolutions

≈ 14.2

Per day

Orbit

SSO

Sun Synchronous Orbit

Inclination

98.7

Latest

Satellite identification and parameters

Extended collection of information and parameters for NOAA 16 DEB.

Object identification

Identified? True

Debris? True

Object name: NOAA 16 DEB

International designator: 2000-055TV

Object number (NORAD): 42425

Object ID (CCSDS): 42425

Country: UNITED STATES OF AMERICA (US)

Current information (Y/N): Y

RCS size: SMALL

Orbital parameters

Period: 101.64 minutes

Inclination: 98.716 deg

SMA: 7214.432 km

Apoapsis: 852.759 km

Periapsis: 819.836 km

RAAN: 172.1801 deg

Eccentricy: 0.0022817

Argument of periapsis: 276.2384 deg

Mean anomaly: 83.6192 deg

Mean motion: 14.16770526 rev/day

Mean motion (dot): 0.00002954 rev/day2

B* drag term: 0.001494 1/REarth

Two-line elements (TLE)

Creation date: May 12, 2025, 7:41 p.m.

Reference frame: TEME

Reference center: EARTH

Epoch: May 12, 2025, 8:24 a.m. UTC

TLE line 0: 0 NOAA 16 DEB

TLE line 1: 1 42425U 00055TV 25132.35054552 .00002954 00000-0 14940-2 0 9999

TLE line 2: 2 42425 98.7160 172.1801 0022817 276.2384 83.6192 14.16770526449939

Live tracking on map

Real-time ground track for satellite NOAA 16 DEB.

In-orbit conjunctions

A list of the most updated potential collisions computed for object NOAA 16 DEB.

Target Orbit TCA Probability of collision Miss distance Type
THORAD AGENA D DEB SSO 2025-02-15 17:08:37 0.0001327471 43.0 (m) DEBRIS
METEOR 2-5 DEB LEO 2024-09-16 10:42:37 0.0001118527 44.0 (m) DEBRIS

Associated space launch

The NOAA K, L and M POES satellites begin the fifth generation of improved environmental monitoring in support of NOAA missions. The instrument payload has significant improvements and additions/deletions. The instrument changes have effected the spacecraft subsystems and data formats.

NOAA 16 DEB was lifted into orbit during the mission ‘Titan II SLV | NOAA 16’, on board a Titan II SLV space rocket.

The launch took place on Sept. 21, 2000, 10:22 a.m. from Space Launch Complex 4W.

For more information about the launch, click the button.

Launch to space Titan II SLV | NOAA 16
Titan II SLV | NOAA 16

Agency: N/A

Status: Launch Successful

Launch date: Sept. 21, 2000, 10:22 a.m. UTC

Rocket: Titan II SLV

Launch pad: Space Launch Complex 4W

Location: Vandenberg SFB, CA, USA

...

Latest news about this satellite

There are no fresh news available about this satellite. Check back as we update our databases every day.


Newsletter sign-up

Weekly statistics, charts and insights to help you stay on top of the space industry.